Flag for France Weather past 2 weeks in Limoges, France

Now
59 °F

Passing clouds.


Feels Like: 58 °F
Forecast: 54 / 79 °F
Wind: 6 mph from Northwest

Location: Limoges Airport

Current Time: Jul 30, 2014 at 8:04:54 AM

Latest Report: Jul 30, 2014 at 7:30 AM


Visibility: N/A

Pressure: 30.01 "Hg

Humidity: 88%

Dew point: 55 °F

Location of LimogesLocation

Historic Weather in Limoges — Graph

°F

Limoges temperature yesterday

Maximum temperature yesterday: 64 °F (at 2:30 PM)
Minimum temperature yesterday: 54 °F (at 2:30 AM)
Average temperature yesterday: 59 °F

Past Weeks' High & Low Weather Summary

 TemperatureHumidityPressure
High90 °F (Jul 17, 3:00 PM)100% (Jul 20, 3:30 AM)30.18 "Hg (Jul 20, 3:30 AM)
Low54 °F (Jul 29, 2:30 AM)27% (Jul 17, 5:00 PM)29.80 "Hg (Jul 18, 10:30 PM)
Average69 °F71%30.02 "Hg
* Reported Jul 15 7:00 AM — Jul 30 7:00 AM, Limoges, Weather by CustomWeather, © 2014

Note: Actual official high and low records may vary slightly from our data, if they occured in-between our weather recording intervals... More about our weather records

Advertising

Limoges weather history for previous 24 hours

 ConditionsComfort  
Time TempWeatherWind HumidityBarometerVisibility
7:00 AM
Jul 30
59 °FPassing clouds.6 mph88%30.01 "HgN/A
6:30 AM59 °FOvercast.5 mph88%30.01 "HgN/A
6:00 AM59 °FMostly cloudy.3 mph94%30.01 "HgN/A
5:30 AM61 °FMostly cloudy.3 mph88%30.01 "HgN/A
5:00 AM61 °FMostly cloudy.5 mph88%30.01 "HgN/A
4:30 AM61 °FOvercast.6 mph88%30.01 "HgN/A
4:00 AM61 °FLow clouds.7 mph88%30.01 "HgN/A
3:30 AM61 °FDrizzle. Fog.6 mph94%30.04 "Hg2 mi
3:00 AM61 °FMostly cloudy.6 mph94%30.01 "HgN/A
2:30 AM61 °FLow clouds.6 mph94%30.04 "Hg6 mi
2:00 AM61 °FDrizzle. Fog.8 mph94%30.01 "Hg3 mi
1:30 AM61 °FLow clouds.7 mph94%30.01 "HgN/A
1:00 AM61 °FLow clouds.7 mph94%30.01 "HgN/A
12:30 AM61 °FLow clouds.6 mph88%30.04 "HgN/A
12:00 AM61 °FDrizzle. Low clouds.7 mph88%30.04 "HgN/A
11:30 PM
Jul 29
61 °FMostly cloudy.6 mph88%30.04 "HgN/A
11:00 PM61 °FMostly cloudy.5 mph88%30.04 "HgN/A
10:30 PM61 °FMostly cloudy.6 mph88%30.01 "HgN/A
10:00 PM61 °FBroken clouds.5 mph88%30.01 "HgN/A
9:30 PM61 °FPartly sunny.7 mph88%30.01 "HgN/A
9:00 PM63 °FDrizzle. Partly sunny.5 mph83%30.01 "HgN/A
8:30 PM63 °FBroken clouds.6 mph77%30.01 "HgN/A
8:00 PM63 °FBroken clouds.7 mph83%30.01 "HgN/A
7:30 PM63 °FMostly cloudy.5 mph77%30.01 "HgN/A
7:00 PM63 °FMostly cloudy.6 mph77%30.01 "HgN/A
6:30 PM63 °FBroken clouds.8 mph83%30.01 "HgN/A
6:00 PM63 °FMostly cloudy.7 mph83%30.01 "HgN/A
5:30 PM61 °FLight rain. Overcast.7 mph83%30.01 "HgN/A
5:00 PM61 °FOvercast.8 mph83%30.01 "HgN/A
4:30 PM63 °FOvercast.10 mph73%30.01 "HgN/A
4:00 PM63 °FOvercast.9 mph73%30.01 "HgN/A
3:30 PM64 °FCloudy.13 mph68%30.01 "HgN/A
3:00 PM63 °FMostly cloudy.9 mph68%30.01 "HgN/A
2:30 PM64 °FMostly cloudy.12 mph68%30.01 "HgN/A
2:00 PM63 °FMostly cloudy.9 mph68%30.01 "HgN/A
1:30 PM63 °FMore clouds than sun.9 mph73%30.01 "HgN/A
1:00 PM63 °FMore clouds than sun.9 mph73%30.01 "HgN/A
12:30 PM63 °FMostly cloudy.7 mph68%30.01 "HgN/A
12:00 PM63 °FBroken clouds.8 mph73%30.01 "HgN/A
11:30 AM61 °FPartly sunny.7 mph77%30.01 "HgN/A
11:00 AM59 °FLow clouds.7 mph88%30.01 "HgN/A
10:30 AM55 °FFog.7 mph100%30.01 "Hg2 mi
10:00 AM55 °FLow clouds.7 mph94%30.01 "Hg6 mi
9:30 AM55 °FLow clouds.5 mph94%30.01 "Hg4 mi
9:00 AM55 °FFog.8 mph94%30.01 "Hg3 mi
8:30 AM55 °FLow clouds.9 mph94%29.98 "Hg4 mi
8:00 AM54 °FDrizzle. Fog.5 mph100%29.98 "Hg1 mi
Weather by CustomWeather, © 2014

See weather overviewHow to use our weather pages